EW1736 Weather Reports


time (UTC)temp
F
wind
direction
speed
knots
gust
knots
rain 1hr
in
rain 24hr
in
rain mn
in
humidity
%
barometer
mb
20260509042521 65 331 2.6 7.0 0.00 0.23 0.21 85 1003.5
20260509042416 65 299 3.5 7.0 0.00 0.23 0.21 83 1003.6
20260509035518 65 285 2.6 13.0 0.00 0.23 0.21 83 1003.8
20260509034013 65 270 3.5 8.7 0.00 0.23 0.21 82 1003.8
20260509032513 66 261 7.0 13.9 0.00 0.23 0.21 80 1003.8
20260509031009 68 264 9.6 13.9 0.00 0.23 0.21 78 1003.8
20260509025509 68 273 2.6 8.7 0.00 0.23 0.21 80 1003.8
20260509024701 67 294 5.2 9.6 0.00 0.23 0.21 79 1003.8
20260509022504 67 292 7.0 13.0 0.00 0.23 0.21 81 1004.1
20260509021001 65 297 10.4 15.6 0.00 0.23 0.21 83 1004.3
20260509015457 67 254 7.8 13.0 0.01 0.23 0.21 82 1004.4
20260509013957 67 269 9.6 12.2 0.01 0.23 0.21 82 1004.3
20260509012454 66 253 5.2 12.2 0.01 0.23 0.21 85 1004.3
20260509010952 66 247 6.1 12.2 0.01 0.24 0.21 86 1004.7
20260509005449 64 266 11.3 20.9 0.00 0.26 0.20 84 1004.7
20260509003945 67 250 12.2 14.8 0.00 0.26 0.20 80 1005.0
20260509002440 68 284 7.8 15.6 0.00 0.26 0.20 77 1005.2
20260509000936 69 244 10.4 13.9 0.00 0.26 0.20 77 1005.4
20260508235438 69 277 7.8 13.0 0.00 0.26 0.20 78 1005.6
20260508233932 68 286 7.8 13.0 0.00 0.26 0.20 79 1005.8
20260508232433 67 251 7.8 14.8 0.00 0.27 0.20 81 1005.9
20260508230928 66 266 11.3 15.6 0.00 0.27 0.20 81 1006.2
20260508225424 66 266 7.0 13.9 0.00 0.27 0.20 84 1006.4
20260508223926 65 313 6.1 13.0 0.00 0.27 0.20 85 1006.6
20260508222420 65 268 4.3 8.7 0.00 0.28 0.20 85 1006.8
20260508220921 65 288 7.0 12.2 0.00 0.28 0.20 85 1006.9
20260508215416 65 293 6.1 12.2 0.00 0.28 0.20 86 1007.0
20260508213917 65 290 3.5 7.8 0.00 0.28 0.20 88 1007.1
20260508212414 64 294 3.5 7.0 0.00 0.28 0.20 90 1007.0
20260508210908 63 300 2.6 7.8 0.00 0.28 0.20 90 1007.1
20260508210056 62 275 4.3 7.8 0.00 0.28 0.20 91 1007.0
20260508203858 62 311 2.6 7.0 0.00 0.28 0.20 92 1007.0
20260508202400 62 336 2.6 5.2 0.00 0.28 0.20 92 1006.9
20260508200855 62 342 2.6 6.1 0.00 0.28 0.20 93 1007.0
20260508195351 61 29 1.7 5.2 0.00 0.28 0.20 94 1006.9
20260508193847 60 288 0.0 1.7 0.00 0.28 0.20 93 1006.7
20260508193748 60 282 1.7 3.5 0.00 0.28 0.20 93 1006.4
20260508190839 61 289 3.5 6.1 0.00 0.28 0.20 93 1006.4
20260508185333 61 317 3.5 7.0 0.00 0.28 0.20 94 1006.4
20260508183833 61 5 1.7 4.3 0.00 0.28 0.20 94 1006.5
20260508182329 61 24 1.7 3.5 0.00 0.28 0.20 94 1006.5
20260508181531 61 5 0.0 4.3 0.00 0.28 0.20 94 1006.5
20260508175325 61 114 0.0 5.2 0.00 0.28 0.20 94 1006.3
20260508174515 61 50 1.7 5.2 0.00 0.28 0.20 94 1006.4
20260508172318 61 19 1.7 11.3 0.00 0.28 0.20 94 1006.5
20260508170818 61 275 0.9 10.4 0.00 0.28 0.20 94 1006.3
20260508165313 61 269 6.1 9.6 0.00 0.28 0.20 95 1006.0
20260508163813 61 254 7.8 13.0 0.00 0.28 0.20 95 1006.0
20260508162309 60 239 5.2 7.8 0.00 0.28 0.20 95 1005.9
20260508160805 61 242 3.5 7.0 0.00 0.28 0.20 95 1006.0
20260508155301 60 240 1.7 8.7 0.00 0.28 0.20 95 1006.3
20260508153756 60 204 5.2 10.4 0.03 0.28 0.20 95 1006.4
20260508152257 60 253 3.5 11.3 0.05 0.28 0.20 96 1006.3
20260508150752 60 251 8.7 16.5 0.05 0.28 0.20 96 1006.7
20260508145248 60 279 11.3 18.2 0.13 0.28 0.20 96 1006.9
20260508143748 61 273 14.8 19.1 0.12 0.25 0.17 96 1007.1
20260508142244 61 284 7.8 13.0 0.12 0.24 0.16 97 1007.1
20260508140744 62 271 9.6 17.4 0.13 0.24 0.16 96 1007.3
20260508135239 65 305 18.2 25.2 0.06 0.15 0.08 97 1007.2
20260508134443 65 21 9.6 16.5 0.05 0.13 0.06 97 1006.8
20260508132231 65 21 9.6 18.2 0.04 0.13 0.04 97 1006.9
20260508130727 65 5 11.3 18.2 0.02 0.11 0.02 96 1007.2
20260508125222 66 22 10.4 20.0 0.02 0.10 0.02 96 1007.3
20260508123717 66 31 9.6 15.6 0.00 0.09 0.00 96 1007.2
20260508122218 66 76 7.8 18.2 0.00 0.09 0.00 96 1007.6
20260508120714 66 340 8.7 17.4 0.00 0.09 0.00 96 1007.9
20260508115210 66 340 12.2 19.1 0.00 0.09 0.09 95 1008.3
20260508113710 66 38 13.0 20.0 0.00 0.09 0.09 95 1008.5
20260508112206 66 342 10.4 18.2 0.00 0.09 0.09 95 1008.8
20260508110707 66 335 7.0 18.2 0.00 0.09 0.09 95 1008.8
20260508105202 66 355 7.0 16.5 0.00 0.09 0.09 95 1009.2
20260508104354 65 326 6.1 16.5 0.00 0.09 0.09 95 1009.4
20260508102159 65 335 10.4 18.2 0.01 0.09 0.09 96 1010.0
20260508100654 65 0 12.2 20.0 0.01 0.09 0.09 96 1010.1
20260508095150 65 340 9.6 18.2 0.01 0.09 0.09 96 1010.1
20260508093650 65 330 9.6 15.6 0.01 0.09 0.09 96 1009.9
20260508092146 65 49 14.8 22.6 0.00 0.09 0.09 95 1010.2
20260508091339 65 18 9.6 18.2 0.00 0.09 0.09 95 1010.4
20260508085143 65 342 8.7 14.8 0.00 0.09 0.09 95 1010.9
20260508083638 65 17 9.6 15.6 0.00 0.09 0.09 95 1011.0
20260508082134 65 336 9.6 15.6 0.00 0.09 0.09 95 1011.2
20260508080628 65 11 9.6 16.5 0.00 0.09 0.09 95 1011.1
20260508075129 65 331 9.6 19.1 0.00 0.09 0.09 95 1010.9
20260508074326 65 9 13.0 20.9 0.00 0.09 0.09 95 1010.8
20260508072125 65 51 11.3 20.0 0.00 0.09 0.09 95 1011.4
20260508071310 65 333 9.6 22.6 0.01 0.09 0.09 95 1011.6
20260508065117 64 341 9.6 19.1 0.01 0.09 0.09 95 1011.8
20260508063612 64 352 9.6 20.9 0.01 0.09 0.09 95 1011.7
20260508062109 64 0 13.0 18.2 0.01 0.09 0.09 95 1012.3
20260508060609 65 32 9.6 20.9 0.00 0.08 0.08 94 1012.5
20260508055105 66 32 6.1 16.5 0.00 0.08 0.08 92 1012.7
20260508053600 66 32 7.8 15.6 0.00 0.08 0.08 92 1012.8
20260508052055 66 326 9.6 16.5 0.00 0.08 0.08 92 1013.0
20260508050552 66 49 9.6 17.4 0.00 0.08 0.08 92 1013.3
20260508045051 66 33 12.2 19.1 0.00 0.08 0.08 92 1013.3